Location: Bougoura
(13.1861°N, 5.0773°W)
Time: 03:51:57
(UTC+00:00)

Cosmos 1900 - Pass Details

Date: 18 September 2020
Orbit: 679 x 743 km, 66.1° (Epoch: 23 October)

Event Time Altitude Azimuth Distance (km) Brightness Sun altitude
Rises 19:41:49 0° 344° (NNW) 3,170 8.0 -20.9°
Reaches altitude 10° 19:44:14 10° 348° (NNW) 2,244 7.1 -21.5°
Maximum altitude 19:49:17 60° 68° (ENE) 842 4.4 -22.7°
Enters shadow 19:49:34 58° 84° (E) 849 4.3 -22.8°
